Home > Weather > Arequipa > Past weeks

Flag for Peru Past Weather in Arequipa, Arequipa, Peru — Yesterday and Last 2 Weeks

Now
66 °F

Passing clouds.


Feels Like: 66 °F
Forecast: 49 / 71 °F
Wind: 7 mph from Southwest

Location: Arequipa Airport

Current Time: Jul 30, 2016 at 2:01:14 PM

Latest Report: Jul 30, 2016 at 1:00 PM


Visibility: N/A

Pressure: 30.27 "Hg (23.01 "Hg at 2345m altitude)

Humidity: 12%

Dew Point: 12 °F

Location of ArequipaLocation

Past Weather in Arequipa — Graph

°F

Arequipa Temperature Yesterday

Maximum temperature yesterday: 70 °F (at 12:00 PM)
Minimum temperature yesterday: 46 °F (at 5:00 AM)
Average temperature yesterday: 58 °F

High & Low Weather Summary for the Past Weeks

 TemperatureHumidityPressure
High72 °F (Jul 20, 12:00 PM)35% (Jul 28, 8:00 PM)30.45 "Hg (Jul 28, 8:00 PM)
Low43 °F (Jul 23, 6:00 AM)4% (Jul 26, 11:00 AM)30.21 "Hg (Jul 26, 3:00 AM)
Average57 °F18%30.32 "Hg
* Reported Jul 15 1:00 PM — Jul 30 1:00 PM, Arequipa, Weather by CustomWeather, © 2016

Note: Actual official high and low records may vary slightly from our data, if they occured in-between our weather recording intervals... More about our weather records

Advertising

Arequipa Weather History for the Previous 24 Hours

Scroll right to see more
 ConditionsComfort  
Time TempWeatherWind HumidityBarometerVisibility
1:00 PM
Sat, Jul 30
66 °FPassing clouds.7 mph12%30.27 "HgN/A
12:00 PM68 °FSunny.5 mph13%30.30 "Hg10 mi
11:00 AM64 °FPassing clouds.6 mph16%30.33 "HgN/A
10:00 AM63 °FPassing clouds.6 mph19%30.33 "HgN/A
9:00 AM61 °FPassing clouds.8 mph20%30.33 "HgN/A
8:00 AM57 °FSunny.3 mph23%30.33 "Hg10 mi
7:00 AM45 °FSunny.3 mph31%30.30 "Hg10 mi
6:00 AM45 °FClear.2 mph31%30.27 "Hg10 mi
5:00 AM46 °FClear.5 mph32%30.27 "Hg10 mi
4:00 AM48 °FClear.6 mph29%30.27 "Hg10 mi
3:00 AM46 °FClear.3 mph32%30.27 "Hg10 mi
2:00 AM46 °FClear.No wind32%30.27 "Hg10 mi
1:00 AM50 °FClear.3 mph30%30.30 "Hg10 mi
12:00 AM52 °FClear.6 mph30%30.30 "Hg10 mi
11:00 PM
Fri, Jul 29
50 °FPassing clouds.5 mph30%30.30 "HgN/A
10:00 PM54 °FClear.7 mph26%30.30 "Hg10 mi
9:00 PM52 °FClear.2 mph28%30.30 "Hg10 mi
8:00 PM54 °FClear.6 mph24%30.27 "Hg10 mi
7:00 PM57 °FClear.No wind29%30.27 "Hg10 mi
6:00 PM59 °FClear.2 mph27%30.24 "Hg10 mi
5:00 PM63 °FSunny.7 mph22%30.24 "Hg10 mi
4:00 PM66 °FPassing clouds.10 mph17%30.21 "HgN/A
3:00 PM68 °FPassing clouds.10 mph14%30.24 "HgN/A
2:00 PM68 °FSunny.13 mph14%30.24 "Hg10 mi
Weather by CustomWeather, © 2016

See weather overviewHow to use our weather pages